Location: ??????
(55.6130°N, 37.7882°E)
Time: 14:22:55
(UTC+00:00)

SL-16 R/B - Pass Details

Date: 14 April 2024
Orbit: 841 x 846 km, 71.0° (Epoch: 17 May)

Event Time Altitude Azimuth Distance (km) Brightness Sun altitude
Exits shadow 00:35:34 11° 270° (W) 2,410 4.1 -14.3°
Maximum altitude 00:40:13 28° 328° (NNW) 1,532 3.6 -13.8°
Drops below altitude 10° 00:45:07 10° 27° (NNE) 2,480 5.8 -13.2°
Sets 00:47:56 0° 39° (NE) 3,418 7.2 -12.9°
